Terminal Aerodrome Forecast
Issued by NWS Knoxville/Tri Cities, TN

Home | Current Version | Previous Version | Text Only | Print | Product List | Glossary On
Versions: 1 2 3 4 5 6 7 8 9 10 11 12 13 14 15 16 17 18 19 20 21 22 23 24 25 26 27 28 29 30 31 32 33 34 35 36 37 38 39 40 41 42 43 44 45 46 47 48 49 50
000
FTUS44 KMRX 181725
TAFCHA
TAF
KCHA 181725Z 1818/1918 VRB04KT P6SM SCT025 BKN150
     FM182000 11009KT P6SM VCSH BKN040 BKN200
     FM190500 14004KT 4SM -SHRA BR OVC035
     FM190700 16007KT 2SM RA BR VCTS BKN008 OVC015CB
     FM191300 19009KT P6SM VCTS OVC020CB
     FM191600 20012G18KT P6SM VCTS BKN035CB BKN200=

USA.gov is the U.S. government's official web portal to all federal, state and local government web resources and services.